humankinetics.com alexa rank chart, humankinetics.com alexa rank daily changes

humankinetics.com alexa rank chart, humankinetics.com alexa rank daily changes

humankinetics.com
Actual rank:
34 760

RANK HISTORY

Date Rank Diff
2017/04/23 34 760 +342
2017/04/22 34 418 +413
2017/04/21 34 005 -55
2017/04/20 34 060 -138
2017/04/19 34 198 -529
2017/04/18 34 727 +48
2017/04/17 34 679 +358
2017/04/16 34 321 +95
2017/04/15 34 226 -235
2017/04/14 34 461 -253
2017/04/13 34 714 +86
2017/04/12 34 628 +122
2017/04/11 34 506 -216
2017/04/10 34 722 -94
2017/04/09 34 816 -16
2017/04/08 34 832 -187
2017/04/07 35 019 -200
2017/04/06 35 219 -415
2017/04/05 35 634 +324
2017/04/04 35 310 +503
2017/04/03 34 807 +318
2017/04/02 34 489 +81
2017/04/01 34 408 -22
2017/03/31 34 430 +49
2017/03/30 34 381 -148
2017/03/29 34 529 +385
2017/03/28 34 144 +154
2017/03/27 33 990 -43
2017/03/26 34 033 +324
2017/03/25 33 709 -387
2017/03/24 34 096 -219
2017/03/23 34 315 -38
2017/03/22 34 353 -620
2017/03/21 34 973 +271
2017/03/20 34 702 -205
2017/03/19 34 907 +205
2017/03/18 34 702 +19
2017/03/17 34 683 -18
2017/03/16 34 701 +112
2017/03/15 34 589 +93
2017/03/14 34 496 -162
2017/03/13 34 658 +151
2017/03/12 34 507 -308
2017/03/11 34 815 -182
2017/03/10 34 997 -55
2017/03/09 35 052 -412
2017/03/08 35 464 +7
2017/03/07 35 457 -1 178
2017/03/06 36 635 -518
2017/03/01 37 153 -1 727
2017/02/28 38 880 -613
2017/02/27 39 493 -103
2017/02/26 39 596 -280
2017/02/25 39 876 -124
2017/02/24 40 000 -796
2017/02/23 40 796 -719
2017/02/22 41 515

WIDGET FOR YOUR SITE

DOMAINS WITH THE NEAREST RANK

Domain Rank
bkn.go.id 34 755
xep3gae.top 34 756
coquine-dispo.com 34 757
animeku.tv 34 758
ugsnx.com 34 759
humankinetics.com 34 760
hawaiinewsnow.com 34 761
toutpratique.com 34 762
mnogo.ru 34 763
devki.net 34 764
sanalbasin.com 34 765

DOMAINS WITH THE NEAREST RANK BY TLD .com

Domain Rank
tottenhamhotspur.com 34 749
lexology.com 34 752
cs090.com 34 754
coquine-dispo.com 34 757
ugsnx.com 34 759
humankinetics.com 34 760
hawaiinewsnow.com 34 761
toutpratique.com 34 762
sanalbasin.com 34 765
streetinsider.com 34 766
asexstories.com 34 769